Temp
-17 -17 -15 -15 -15 -15 -15 -14 -14 -14 -13 -13 -12 -12 -12 -12 -12 -12 -11 -11 -11 -11 -11 -11 -11 -11 -11 -10 -10 -10 -10 -11 -11 -10 -11 -11 -11 -11 -11 -11 -12 -13 -13 -13
-17 -17 -17 -16 -16 -15 -15 -14 -14 -14 -14 -13 -13 -12 -12 -12 -12 -12 -12 -11 -12 -12 -12 -12 -11 -11 -11 -11 -10 -10 -10 -10 -10 -11 -11 -11 -11 -11 -11 -11 -12 -12 -13 -13
-17 -17 -17 -17 -16 -16 -15 -14 -14 -14 -14 -13 -12 -12 -12 -12 -12 -12 -12 -12 -11 -11 -11 -12 -11 -11 -11 -11 -11 -11 -10 -11 -10 -11 -11 -11 -11 -11 -12 -12 -13 -13 -13 -13
-19 -18 -17 -17 -17 -16 -15 -15 -15 -14 -14 -13 -13 -11 -13 -13 -12 -12 -12 -12 -11 -11 -11 -12 -11 -11 -11 -11 -11 -11 -11 -11 -11 -11 -11 -11 -12 -12 -12 -12 -13 -13 -13 -13
-17 -17 -17 -17 -17 -16 -16 -15 -15 -14 -14 -13 -13 -12 -13 -13 -12 -12 -12 -12 -12 -11 -11 -11 -11 -12 -11 -11 -11 -11 -11 -11 -11 -11 -11 -11 -11 -12 -12 -13 -13 -12 -13 -13
-18 -18 -18 -17 -17 -16 -16 -16 -15 -15 -14 -13 -13 -13 -14 -13 -13 -13 -13 -13 -12 -12 -12 -12 -12 -12 -12 -12 -12 -12 -12 -12 -12 -12 -12 -11 -11 -11 -11 -12 -13 -13 -13 -13
-18 -18 -17 -17 -16 -16 -16 -16 -15 -15 -14 -13 -14 -14 -14 -14 -14 -14 -13 -13 -13 -13 -12 -12 -12 -12 -12 -13 -13 -13 -13 -13 -13 -13 -13 -12 -12 -12 -11 -11 -11 -12 -13 -13
-19 -18 -18 -17 -17 -17 -16 -16 -15 -15 -14 -14 -15 -15 -15 -15 -15 -14 -14 -13 -13 -13 -13 -13 -13 -13 -13 -13 -13 -13 -13 -13 -13 -13 -13 -13 -13 -13 -12 -12 -12 -12 -12 -12
-19 -18 -18 -17 -17 -16 -16 -15 -16 -15 -15 -15 -15 -15 -15 -15 -15 -14 -14 -13 -13 -13 -13 -13 -13 -13 -13 -13 -13 -13 -13 -14 -14 -14 -14 -14 -13 -13 -13 -13 -13 -12 -12 -13
-19 -18 -18 -18 -17 -17 -16 -16 -16 -16 -15 -15 -16 -16 -15 -15 -14 -14 -14 -14 -13 -13 -13 -13 -13 -13 -13 -13 -13 -13 -14 -14 -14 -15 -15 -15 -15 -14 -14 -14 -13 -13 -13 -13
-19 -18 -18 -18 -17 -17 -17 -17 -16 -16 -16 -16 -16 -16 -15 -15 -14 -14 -14 -13 -14 -14 -14 -13 -13 -13 -13 -13 -13 -14 -14 -14 -15 -15 -15 -16 -16 -15 -15 -15 -15 -15 -14 -14
-18 -18 -18 -18 -17 -17 -17 -17 -17 -16 -16 -16 -16 -16 -15 -14 -14 -14 -14 -14 -14 -13 -13 -13 -13 -13 -14 -14 -14 -14 -15 -15 -15 -15 -16 -17 -17 -17 -17 -16 -16 -15 -15 -15
-18 -18 -18 -18 -18 -17 -17 -17 -17 -16 -16 -16 -16 -16 -15 -14 -15 -14 -14 -14 -13 -14 -14 -14 -14 -13 -14 -14 -15 -16 -17 -19 -20 -19 -19 -19 -18 -18 -18 -17 -17 -17 -16 -16
-18 -18 -18 -17 -17 -17 -17 -16 -16 -16 -16 -16 -16 -16 -15 -15 -15 -14 -14 -14 -14 -14 -14 -14 -14 -14 -14 -15 -16 -17 -18 -20 -20 -20 -19 -19 -19 -19 -19 -18 -18 -18 -17 -17
-18 -18 -18 -17 -17 -17 -17 -17 -16 -16 -16 -16 -16 -16 -16 -15 -15 -15 -14 -14 -14 -14 -14 -13 -14 -14 -15 -15 -17 -17 -18 -20 -20 -20 -20 -20 -20 -19 -19 -19 -19 -19 -18 -18
-18 -17 -17 -17 -17 -17 -17 -17 -16 -16 -16 -16 -16 -16 -16 -16 -15 -15 -14 -14 -14 -14 -14 -14 -14 -14 -15 -16 -17 -17 -18 -19 -19 -20 -20 -19 -19 -19 -19 -19 -19 -19 -18 -18
-18 -17 -17 -17 -17 -17 -17 -17 -17 -17 -16 -16 -16 -16 -16 -15 -15 -15 -15 -15 -14 -14 -14 -14 -14 -15 -16 -16 -17 -17 -18 -18 -19 -20 -19 -19 -19 -19 -19 -19 -19 -19 -19 -19
-18 -17 -17 -17 -17 -17 -17 -17 -17 -17 -17 -17 -16 -16 -16 -15 -15 -15 -15 -15 -15 -14 -14 -14 -14 -15 -15 -16 -16 -17 -17 -18 -18 -18 -19 -19 -19 -18 -18 -18 -18 -18 -19 -19
-18 -18 -17 -17 -17 -17 -17 -17 -17 -17 -17 -16 -16 -16 -16 -16 -16 -16 -16 -16 -15 -15 -14 -15 -15 -15 -15 -16 -16 -16 -17 -17 -18 -18 -18 -18 -18 -18 -18 -18 -18 -18 -18 -18
-18 -18 -17 -17 -17 -17 -17 -17 -17 -17 -17 -16 -16 -16 -16 -16 -16 -16 -16 -16 -16 -16 -15 -15 -15 -15 -16 -16 -16 -16 -16 -17 -17 -17 -17 -17 -17 -18 -18 -18 -18 -18 -17 -17
-18 -18 -18 -17 -17 -17 -17 -17 -17 -17 -16 -16 -16 -16 -16 -16 -16 -16 -16 -16 -16 -16 -16 -16 -15 -15 -16 -16 -16 -16 -16 -17 -17 -17 -17 -17 -17 -17 -17 -17 -17 -17 -17 -17
-18 -18 -18 -17 -18 -17 -17 -17 -17 -17 -17 -16 -16 -16 -16 -16 -16 -16 -16 -16 -16 -16 -16 -16 -16 -16 -16 -16 -16 -16 -16 -17 -17 -17 -17 -17 -17 -17 -17 -17 -17 -17 -17 -17
-18 -18 -18 -18 -18 -17 -17 -17 -17 -17 -17 -17 -16 -16 -16 -16 -16 -16 -17 -17 -16 -17 -17 -17 -17 -16 -16 -16 -16 -17 -17 -17 -17 -17 -17 -17 -17 -17 -17 -17 -17 -17 -17 -17
-18 -18 -18 -18 -18 -17 -18 -17 -17 -17 -17 -17 -16 -16 -16 -16 -16 -17 -17 -17 -17 -17 -17 -17 -17 -17 -17 -17 -17 -17 -17 -17 -17 -17 -17 -17 -17 -17 -17 -17 -18 -18 -18 -18
-18 -18 -18 -18 -18 -17 -17 -17 -17 -17 -17 -17 -16 -16 -16 -16 -16 -17 -17 -17 -17 -17 -17 -17 -17 -17 -17 -17 -17 -17 -17 -17 -17 -17 -17 -17 -17 -18 -18 -18 -18 -18 -18 -18
-18 -18 -18 -18 -17 -17 -18 -17 -17 -17 -17 -17 -16 -16 -16 -17 -16 -17 -17 -17 -17 -17 -17 -17 -17 -17 -17 -17 -17 -17 -17 -17 -17 -17 -17 -17 -18 -18 -18 -18 -18 -19 -19 -19
Height
5647 5654 5664 5674 5681 5687 5693 5699 5706 5711 5717 5723 5729 5731 5741 5744 5746 5750 5752 5754 5754 5758 5760 5761 5763 5764 5765 5768 5769 5770 5770 5772 5773 5774 5775 5777 5778 5779 5779 5781 5782 5783 5784 5786
5643 5650 5659 5667 5673 5680 5687 5694 5701 5706 5711 5716 5722 5726 5732 5737 5740 5741 5743 5746 5746 5748 5751 5752 5753 5755 5756 5757 5758 5760 5762 5761 5762 5764 5765 5768 5768 5770 5771 5772 5773 5775 5777 5777
5636 5646 5655 5660 5669 5676 5683 5688 5694 5701 5705 5709 5715 5719 5724 5729 5730 5733 5734 5736 5737 5739 5742 5744 5745 5746 5746 5748 5748 5750 5752 5752 5753 5754 5756 5758 5759 5762 5762 5763 5765 5767 5767 5768
5634 5643 5652 5658 5665 5671 5677 5683 5689 5694 5699 5704 5709 5712 5718 5719 5720 5724 5726 5728 5730 5732 5734 5734 5735 5736 5738 5738 5738 5739 5740 5741 5742 5742 5744 5748 5750 5752 5753 5753 5753 5754 5755 5757
5639 5644 5650 5657 5662 5666 5673 5678 5683 5689 5694 5698 5702 5705 5713 5711 5712 5715 5719 5721 5722 5724 5724 5726 5726 5727 5727 5727 5727 5728 5729 5729 5731 5732 5733 5734 5736 5740 5741 5742 5743 5743 5744 5747
5637 5642 5647 5652 5657 5663 5670 5675 5679 5684 5689 5692 5696 5699 5703 5706 5707 5708 5711 5714 5715 5715 5716 5717 5718 5718 5718 5718 5718 5718 5718 5718 5718 5719 5721 5722 5723 5724 5725 5727 5729 5732 5733 5735
5634 5640 5645 5650 5655 5660 5666 5671 5676 5681 5684 5687 5690 5693 5695 5700 5701 5702 5704 5706 5708 5709 5710 5710 5711 5711 5710 5709 5708 5708 5707 5706 5705 5705 5706 5708 5709 5710 5712 5714 5715 5716 5719 5722
5634 5640 5644 5649 5654 5659 5663 5668 5672 5675 5679 5683 5686 5688 5690 5693 5696 5698 5698 5700 5701 5702 5703 5703 5702 5702 5701 5700 5698 5696 5694 5692 5691 5690 5690 5691 5692 5693 5696 5699 5700 5702 5705 5708
5634 5639 5643 5646 5651 5657 5661 5664 5669 5672 5675 5677 5682 5684 5687 5688 5690 5692 5694 5695 5695 5695 5694 5694 5693 5692 5690 5688 5686 5683 5680 5677 5673 5672 5672 5672 5674 5677 5679 5681 5683 5688 5690 5694
5633 5637 5641 5644 5649 5654 5657 5661 5665 5668 5672 5675 5678 5681 5683 5684 5684 5685 5688 5688 5687 5686 5685 5684 5683 5682 5680 5677 5673 5668 5664 5661 5657 5654 5652 5653 5653 5654 5658 5661 5667 5671 5675 5679
5632 5637 5641 5644 5646 5650 5655 5658 5661 5665 5669 5672 5675 5678 5678 5679 5679 5680 5679 5679 5679 5678 5677 5675 5673 5670 5667 5662 5657 5652 5646 5641 5637 5633 5631 5631 5632 5635 5639 5642 5647 5652 5657 5661
5632 5635 5639 5642 5645 5649 5654 5657 5660 5662 5667 5669 5671 5674 5672 5673 5674 5674 5674 5672 5671 5670 5668 5666 5663 5658 5652 5647 5640 5632 5623 5615 5610 5608 5608 5609 5613 5618 5621 5625 5631 5637 5641 5645
5631 5634 5638 5641 5646 5648 5651 5654 5657 5660 5663 5665 5667 5668 5668 5668 5669 5668 5668 5666 5664 5663 5660 5657 5651 5646 5641 5633 5622 5613 5602 5592 5588 5586 5587 5590 5595 5600 5605 5610 5615 5621 5626 5631
5631 5634 5638 5642 5644 5648 5651 5654 5655 5658 5659 5660 5662 5663 5662 5664 5664 5662 5662 5660 5659 5657 5654 5650 5644 5638 5628 5619 5610 5599 5590 5583 5577 5576 5578 5580 5583 5587 5591 5595 5600 5606 5611 5617
5631 5634 5637 5640 5643 5646 5648 5650 5652 5654 5655 5657 5656 5658 5658 5658 5658 5659 5657 5656 5654 5650 5646 5641 5635 5627 5620 5610 5602 5593 5586 5577 5571 5568 5568 5570 5574 5578 5581 5584 5589 5594 5599 5604
5629 5633 5636 5638 5641 5643 5645 5647 5649 5650 5651 5651 5653 5654 5655 5654 5654 5654 5653 5651 5648 5643 5639 5635 5628 5622 5614 5605 5598 5591 5583 5575 5570 5568 5567 5568 5570 5572 5575 5577 5581 5585 5589 5593
5628 5631 5634 5637 5639 5641 5644 5644 5646 5646 5647 5649 5650 5651 5650 5651 5651 5649 5646 5644 5642 5638 5634 5631 5625 5617 5609 5602 5594 5587 5583 5578 5574 5570 5568 5570 5571 5572 5572 5573 5574 5576 5581 5587
5627 5630 5633 5635 5637 5640 5640 5641 5642 5642 5644 5646 5647 5647 5648 5647 5646 5644 5642 5639 5637 5633 5630 5626 5620 5615 5607 5602 5595 5588 5583 5578 5574 5573 5572 5572 5571 5571 5572 5573 5573 5576 5578 5582
5626 5629 5631 5633 5634 5637 5637 5638 5639 5639 5642 5643 5644 5645 5644 5643 5641 5639 5637 5635 5632 5629 5625 5621 5618 5613 5606 5601 5596 5591 5587 5582 5578 5574 5573 5572 5572 5572 5572 5572 5574 5576 5578 5583
5624 5626 5628 5629 5631 5632 5634 5635 5636 5637 5638 5639 5640 5640 5639 5637 5637 5635 5633 5630 5627 5624 5621 5618 5615 5612 5608 5603 5597 5593 5589 5586 5582 5578 5576 5575 5573 5573 5574 5575 5576 5579 5582 5584
5620 5622 5624 5625 5627 5629 5630 5631 5633 5635 5639 5637 5637 5637 5636 5635 5635 5633 5630 5628 5624 5621 5618 5616 5614 5611 5607 5603 5599 5595 5592 5589 5585 5583 5581 5579 5578 5578 5578 5579 5580 5581 5583 5584
5617 5618 5620 5622 5623 5626 5627 5628 5630 5632 5633 5634 5634 5633 5632 5632 5631 5630 5628 5625 5622 5619 5616 5614 5612 5608 5606 5603 5601 5597 5594 5592 5589 5587 5585 5584 5583 5583 5583 5582 5582 5583 5584 5585
5613 5614 5617 5619 5620 5622 5623 5625 5626 5628 5630 5631 5631 5630 5630 5629 5629 5627 5626 5624 5621 5618 5615 5612 5610 5608 5605 5602 5600 5598 5596 5593 5591 5590 5589 5588 5587 5586 5585 5585 5585 5585 5585 5584
5607 5610 5612 5614 5616 5617 5619 5620 5622 5624 5626 5627 5628 5627 5627 5626 5625 5624 5622 5621 5619 5617 5614 5612 5610 5607 5605 5602 5600 5598 5596 5594 5593 5591 5590 5589 5588 5587 5587 5586 5585 5584 5583 5582
5603 5606 5608 5610 5610 5614 5616 5618 5620 5621 5623 5623 5624 5624 5623 5622 5621 5621 5619 5618 5616 5615 5613 5610 5608 5605 5603 5602 5600 5598 5597 5595 5593 5591 5590 5589 5588 5587 5586 5584 5582 5581 5579 5578
5598 5601 5603 5605 5605 5609 5611 5612 5614 5616 5617 5619 5619 5619 5619 5618 5617 5616 5615 5614 5613 5611 5610 5608 5606 5604 5602 5601 5599 5598 5596 5594 5592 5591 5589 5588 5586 5585 5583 5581 5580 5578 5576 5574
Wind_Speed
39 38 45 45 45 45 45 45 45 44 43 44 43 45 40 40 43 42 42 44 45 44 42 43 44 45 44 42 41 42 44 44 44 44 45 44 42 43 42 40 40 40 38 35
30 41 33 43 45 45 46 44 42 41 41 42 41 43 40 37 40 42 42 44 45 44 42 43 44 46 46 44 44 43 43 46 48 46 46 45 44 44 45 44 44 42 39 38
34 31 36 27 36 41 41 42 41 40 39 41 40 41 39 36 38 39 40 41 43 44 42 43 44 46 47 46 45 45 45 46 49 50 47 47 45 44 46 46 44 42 42 41
30 26 31 24 21 33 40 41 37 38 39 40 39 39 33 36 37 38 38 39 41 41 41 42 44 45 46 47 47 46 47 47 47 49 51 48 46 46 45 47 48 48 47 46
35 31 32 20 25 29 31 33 31 33 33 35 33 36 23 31 34 33 33 34 37 39 42 42 42 44 46 47 50 49 49 50 50 51 53 53 53 49 48 48 50 51 50 46
31 31 31 34 27 34 30 27 27 27 27 30 27 30 24 25 28 29 30 31 34 38 40 41 42 44 45 47 47 48 49 50 52 52 53 55 58 59 57 52 49 48 49 48
32 29 31 31 29 28 25 26 26 24 25 26 22 24 24 18 24 26 28 31 33 34 37 38 39 41 42 44 46 48 50 52 54 56 57 57 58 60 60 60 59 56 53 52
26 26 25 25 27 25 25 26 25 24 22 21 16 21 20 19 18 25 28 29 31 33 34 36 38 40 43 46 49 52 55 58 60 62 63 63 63 63 63 63 64 63 60 58
20 22 23 23 23 22 22 22 21 19 18 18 17 18 18 20 21 23 26 28 30 32 34 36 39 41 44 46 50 54 57 60 63 66 68 70 70 70 69 69 67 65 66 64
26 25 21 20 20 20 21 20 19 18 19 18 16 15 17 21 24 24 23 25 28 31 33 35 36 37 42 46 50 55 58 62 64 66 68 71 72 74 74 74 73 72 71 70
18 19 20 20 19 18 21 22 22 20 18 16 13 15 18 21 23 23 25 28 28 28 28 31 35 40 46 49 53 56 60 63 65 67 70 70 70 73 73 74 73 72 72 73
17 18 18 19 21 21 21 18 17 16 14 14 13 15 17 20 20 23 24 24 26 27 31 31 37 39 45 47 52 54 58 61 64 67 64 66 68 66 69 70 71 71 69 68
17 17 18 17 15 15 14 15 15 14 13 11 15 17 17 19 18 20 20 22 26 25 28 33 36 43 44 49 47 48 53 48 48 52 52 52 51 55 58 64 65 66 66 64
18 17 16 14 13 13 14 14 13 12 12 14 17 15 20 14 13 17 19 22 19 23 27 29 36 38 41 39 37 41 41 33 33 35 39 35 37 40 44 49 56 60 62 62
15 14 13 13 13 13 13 12 11 12 15 13 18 13 16 15 14 18 20 17 17 22 23 25 30 35 37 32 31 32 32 29 25 24 24 25 29 32 33 34 41 45 50 52
15 13 13 12 12 12 12 12 13 14 14 14 13 14 11 13 17 19 16 15 18 22 21 23 27 30 30 26 24 22 26 23 20 17 16 17 19 22 26 27 31 35 38 41
15 14 13 11 12 12 13 13 14 14 13 12 11 10 12 15 15 17 17 19 19 21 20 22 24 26 26 28 24 23 23 20 17 12 11 13 13 15 15 16 20 23 23 27
13 12 12 12 12 12 12 13 13 14 13 12 11 12 13 13 14 17 21 21 19 17 14 22 21 23 24 24 24 19 18 15 12 9 5 8 8 5 8 13 9 10 19 19
14 13 13 13 13 13 12 13 13 14 13 11 11 10 10 11 12 13 16 17 16 15 16 17 17 21 22 19 19 19 11 14 11 8 10 7 7 4 2 3 1 5 7 10
15 15 15 15 15 14 13 13 16 14 12 10 8 8 8 10 14 14 16 16 17 17 14 11 17 17 19 15 13 14 15 14 8 9 10 8 8 9 6 6 2 7 3 8
18 18 18 17 15 15 14 16 15 13 11 10 9 8 7 11 13 15 14 14 15 15 13 11 14 18 13 7 13 13 13 16 11 10 12 10 6 8 12 9 4 5 5 6
20 20 20 17 16 17 16 17 15 12 11 8 8 6 7 11 14 14 11 13 14 16 14 11 12 12 11 6 10 10 13 15 13 7 12 12 7 5 9 6 6 2 3 6
21 21 18 18 18 16 16 16 13 11 9 8 8 8 10 13 13 14 11 12 13 13 14 12 11 12 12 10 5 10 12 13 12 10 11 11 9 8 8 7 6 5 7 10
23 22 19 19 20 19 20 18 15 13 10 9 10 11 13 14 14 15 14 12 12 11 12 12 11 9 9 8 8 10 11 12 12 12 12 11 10 10 9 9 9 11 13 15
23 21 21 19 22 21 21 18 17 17 16 15 15 16 17 16 16 15 16 15 13 11 11 11 13 11 9 8 8 9 10 11 12 12 11 10 10 10 11 13 15 16 17 19
25 22 20 20 24 22 23 22 21 22 21 20 19 19 20 18 17 16 16 17 14 15 12 12 12 11 8 8 8 9 10 12 13 14 15 15 15 16 16 18 18 18 20 22
Wind_Direction
216 214 218 220 221 225 227 230 232 235 236 237 237 238 236 242 244 246 247 250 253 257 259 257 258 258 258 254 253 255 255 255 256 257 259 256 256 257 257 256 255 255 259 262
204 213 210 218 220 222 226 230 235 238 240 241 240 241 244 245 244 248 249 253 256 258 258 258 258 258 259 259 257 257 259 260 259 257 255 255 254 255 257 255 255 258 262 262
205 192 200 210 220 224 228 232 235 240 243 245 244 244 249 247 249 249 251 252 254 257 260 260 260 260 260 262 264 262 261 261 260 260 259 258 254 252 255 257 258 260 260 259
209 203 199 204 200 215 225 231 235 239 243 246 249 246 253 253 251 251 253 255 257 259 261 261 262 262 264 264 264 263 261 259 258 259 260 258 257 255 251 254 255 256 257 259
196 197 199 200 204 213 220 225 227 233 238 242 244 249 235 250 253 254 254 256 258 259 261 262 262 264 264 264 264 263 264 265 263 260 258 258 258 254 251 250 253 256 257 257
199 198 197 196 208 209 214 225 225 226 233 239 242 248 247 241 251 255 255 253 254 257 259 262 264 264 265 266 267 267 267 266 265 264 262 260 259 258 256 252 248 247 251 252
194 194 200 204 212 216 217 222 227 230 234 240 239 246 250 236 234 243 248 252 255 259 262 264 266 268 270 271 271 272 271 269 268 266 264 263 261 259 258 260 258 250 246 248
195 199 199 198 207 210 212 218 222 228 231 239 234 235 240 243 230 235 244 250 254 258 262 266 269 272 274 275 274 274 273 270 267 266 265 263 261 259 258 257 255 255 256 253
186 194 196 198 204 209 212 219 224 225 224 228 223 230 232 240 244 240 245 252 259 263 267 270 272 271 271 272 272 271 269 267 264 262 260 258 259 259 259 257 255 254 255 254
195 196 199 204 205 206 210 215 218 221 217 218 221 235 245 250 256 259 264 265 269 271 272 272 275 278 283 283 281 276 272 270 267 264 263 261 257 254 252 253 254 255 255 255
191 199 203 208 209 209 210 207 208 212 217 219 225 243 249 255 263 271 272 273 275 276 279 283 285 290 289 288 286 282 278 274 270 267 263 259 256 257 256 254 252 252 253 253
200 200 202 197 196 196 198 202 210 217 221 233 246 253 259 262 265 268 277 282 282 282 284 288 298 300 300 298 297 294 290 280 272 266 262 257 255 253 254 254 254 253 253 254
196 196 197 190 190 194 200 205 214 224 234 249 259 265 263 264 277 278 279 288 291 290 296 299 304 306 301 309 308 311 305 286 271 263 263 261 257 254 253 252 251 252 253 252
194 194 195 192 191 195 203 214 225 238 247 254 265 269 268 276 275 279 291 296 296 299 299 301 305 306 317 316 314 318 310 299 281 272 264 267 262 260 257 254 252 249 249 250
194 194 195 195 199 204 218 233 242 248 254 262 264 261 270 277 281 281 294 288 293 314 313 314 318 323 325 319 319 328 317 305 289 270 253 248 252 255 256 256 249 250 250 251
196 199 198 198 208 221 234 242 247 252 258 256 257 255 255 264 273 282 276 284 308 328 317 313 330 327 335 328 318 335 341 336 309 286 272 262 252 250 251 253 253 253 249 247
198 199 201 206 222 234 244 252 256 251 249 245 234 239 261 278 278 276 283 308 315 326 318 317 329 336 345 353 334 323 327 336 345 341 287 269 258 255 253 252 246 242 239 247
201 208 217 224 233 242 252 251 244 245 243 228 234 252 267 278 285 290 298 309 308 324 325 344 332 346 347 356 357 358 355 3 341 343 322 289 290 253 277 232 211 239 228 217
213 222 229 236 244 251 249 235 234 235 226 232 245 247 268 288 310 324 327 315 308 325 334 330 342 345 349 350 358 359 0 352 346 321 297 285 298 324 21 258 264 281 163 194
226 232 239 247 253 252 236 232 226 224 227 237 246 261 283 311 319 330 333 322 321 330 344 344 341 340 344 9 12 10 4 8 22 58 57 60 97 119 132 150 161 137 176 225
231 238 244 252 250 239 232 227 223 222 237 231 253 266 302 307 316 320 331 334 333 334 348 333 335 330 344 23 25 28 33 18 37 46 48 43 112 90 20 32 119 28 236 287
234 241 248 253 242 226 230 224 219 220 229 238 249 273 298 305 309 316 328 339 343 341 340 341 350 0 348 354 353 29 19 37 32 59 42 57 74 45 32 46 55 95 271 283
243 246 249 246 232 225 227 216 216 211 217 243 265 291 300 304 303 305 314 335 343 343 345 343 349 349 1 358 353 9 11 25 17 22 30 37 37 27 21 15 6 340 312 311
241 243 237 238 230 224 219 216 206 206 220 253 276 294 303 301 297 290 289 310 327 330 329 331 334 341 346 6 16 18 19 16 20 27 24 17 12 5 351 341 340 337 329 321
241 239 233 236 233 226 226 222 215 222 239 259 279 285 297 298 291 287 290 294 304 320 320 310 334 332 341 352 6 12 13 12 14 15 4 357 353 348 341 341 338 331 325 321
241 240 234 232 237 234 236 229 225 231 240 253 269 280 289 289 286 281 288 285 294 308 311 301 309 318 323 343 354 359 2 7 6 359 352 347 342 338 334 331 327 322 321 319